Location: Allie Creek
(37.5926°N, 89.8526°W)
Time: 16:10:33
(UTC+00:00)

Cosmos 2266 Rocket - Pass Details

Date: 26 September 2023
Orbit: 933 x 1008 km, 82.9° (Epoch: 08 December)

Event Time Altitude Azimuth Distance (km) Brightness Sun altitude
Exits shadow 09:21:45 64° 163° (SSE) 1,083 4.1 -29.5°
Maximum altitude 09:22:46 80° 95° (E) 1,005 4.0 -29.3°
Drops below altitude 10° 09:29:08 10° 9° (N) 2,772 6.7 -28.2°
Sets 09:31:41 0° 9° (N) 3,733 7.4 -27.7°
